Wind_Speed
25 24 23 23 24 24 24 24 23 23 24 25 25 25 24 25 26 27 28 28 28 29 30 30 31 32 33 33 34 34 35 36 37 38 39 40 41 42 44 46 47 49 50 50
26 25 25 25 26 26 25 25 24 24 25 25 25 25 25 25 26 27 27 27 27 28 30 30 31 32 32 32 33 33 34 35 37 38 39 39 40 42 44 44 45 46 47 48
27 26 26 26 26 26 26 26 25 25 26 26 26 25 24 25 25 26 26 26 27 28 30 30 31 32 32 32 33 33 34 35 37 38 39 40 41 41 42 42 42 43 45 46
29 27 27 27 27 27 26 26 26 26 26 26 26 26 23 24 24 25 25 25 27 28 30 30 30 30 31 32 32 32 33 34 36 37 38 39 40 40 40 40 40 42 44 45
29 28 28 27 27 27 27 26 26 26 26 26 25 27 23 23 23 24 25 26 27 28 29 29 29 29 30 30 31 31 32 33 34 35 36 37 38 38 39 39 39 40 42 44
30 29 28 28 27 27 27 27 27 27 27 27 25 26 24 23 23 24 25 26 26 28 28 28 28 28 29 29 30 30 31 32 32 33 34 35 36 36 37 37 37 38 40 42
31 30 29 29 28 28 27 27 27 27 27 26 25 26 25 23 23 24 25 26 27 28 27 27 27 27 27 27 29 29 30 31 31 32 33 33 33 34 35 36 35 37 38 39
32 31 30 29 29 28 27 27 27 28 27 26 25 25 24 23 23 25 26 27 27 27 27 27 27 26 25 26 27 28 29 30 30 31 31 32 31 32 33 33 34 35 36 37
33 33 31 30 29 29 28 27 27 28 28 27 26 25 24 24 24 25 27 27 27 27 27 26 25 25 25 25 27 28 29 29 30 30 31 30 30 30 31 32 33 34 34 35
33 33 32 31 31 30 29 28 28 28 29 28 28 26 25 24 24 26 26 27 27 26 26 25 24 24 25 25 26 28 29 28 28 28 28 28 27 28 28 29 30 31 32 33
33 33 32 32 31 30 29 29 29 29 30 30 29 27 25 25 25 26 26 27 27 26 25 24 23 23 24 26 26 27 28 27 27 27 27 26 26 26 27 27 28 30 32 32
34 34 33 32 31 31 30 30 29 30 30 30 30 28 26 26 26 26 26 26 26 26 24 23 22 23 24 25 26 26 26 26 27 27 26 25 25 25 25 25 26 27 29 30
35 35 34 33 33 32 31 30 30 30 30 30 30 28 26 26 26 26 26 26 26 25 23 22 22 23 23 24 25 25 25 25 26 25 25 24 24 24 24 25 26 26 27 28
37 37 36 34 33 31 30 30 30 30 30 30 29 28 26 26 26 25 25 25 24 23 22 22 22 22 22 23 24 23 23 24 24 24 24 24 24 24 25 25 26 26 26 26
38 38 36 35 34 34 32 30 30 31 30 30 28 27 26 26 26 25 25 24 23 22 21 22 22 22 22 22 22 22 22 22 21 22 22 23 23 24 25 25 25 26 25 24
38 38 37 36 35 35 34 33 32 31 31 30 29 27 26 26 27 26 25 24 23 22 22 22 22 21 22 21 21 21 21 21 22 22 23 22 24 24 25 25 25 24 24 23
39 38 37 36 35 36 35 32 32 32 30 29 29 26 26 27 27 26 25 24 23 22 22 22 21 21 21 20 21 22 22 22 22 23 24 23 24 25 25 25 25 24 22 22
39 38 37 37 36 37 34 32 32 32 31 30 30 28 27 27 27 27 26 25 24 24 24 23 23 23 22 23 23 23 22 22 22 23 24 24 25 25 25 24 24 23 22 21
41 39 39 38 37 37 34 33 32 32 31 29 29 28 28 28 28 27 26 26 25 25 25 26 25 24 24 23 23 23 23 22 22 23 23 23 24 24 25 25 25 24 22 22
39 39 40 40 39 37 33 32 33 33 32 29 29 29 28 29 28 26 26 26 26 26 26 25 24 24 23 23 23 23 23 24 24 23 23 23 24 24 25 26 25 24 24 24
37 38 39 39 38 37 34 33 32 33 31 30 29 29 29 29 28 27 26 26 26 26 25 25 25 25 24 24 24 24 25 25 24 24 24 24 25 25 26 26 25 26 26 25
35 36 37 37 37 35 33 32 32 31 31 31 30 30 29 29 28 28 27 27 27 26 26 26 26 25 25 25 25 25 25 25 25 25 25 26 26 27 28 27 27 27 27 27
35 35 35 35 35 34 34 33 32 31 30 30 29 30 30 30 29 29 28 28 28 27 27 27 26 25 25 25 25 25 26 26 26 27 27 27 28 29 30 29 29 29 28 27
36 35 35 35 34 34 34 33 32 31 31 30 30 30 30 29 29 29 29 29 28 28 27 26 26 26 25 25 25 26 27 27 27 27 28 29 30 31 31 30 30 30 30 30
35 35 35 35 34 34 33 33 33 32 31 30 30 30 30 30 30 30 30 30 29 29 27 26 25 25 25 25 26 27 28 28 29 29 30 31 31 32 31 31 31 32 32 32
33 34 34 34 33 33 32 32 32 31 31 31 31 31 31 31 31 31 31 31 30 29 28 27 27 27 27 26 27 28 29 30 30 31 32 32 33 32 32 32 33 33 34 35
Wind_Direction
243 243 244 245 246 248 251 254 256 258 260 263 266 269 272 275 278 279 279 279 278 278 278 277 277 277 277 277 277 277 276 275 274 275 273 273 274 274 273 271 268 265 263 261
243 243 244 246 247 249 252 255 257 259 262 265 267 271 274 278 280 280 280 279 279 280 280 280 279 279 279 278 278 277 277 276 276 276 276 275 275 276 275 273 269 265 262 261
244 244 244 246 248 251 253 256 259 261 263 266 270 272 276 278 279 280 280 280 282 284 283 282 281 280 279 279 280 279 279 278 278 277 277 276 278 278 276 272 270 267 264 261
244 244 245 247 249 252 254 257 260 263 265 269 273 276 276 278 279 279 280 282 284 286 286 286 284 282 280 281 282 282 281 282 282 280 279 278 278 279 277 273 271 269 265 262
244 244 245 247 249 251 254 257 260 263 265 269 274 278 279 280 280 281 283 286 287 288 289 289 287 284 282 283 284 283 284 285 284 283 282 280 280 280 278 274 273 270 267 263
242 243 244 246 247 250 253 256 259 262 265 270 274 279 281 282 283 284 286 288 290 292 292 291 289 286 286 286 286 284 285 285 285 286 285 284 283 280 278 276 274 271 269 265
242 242 244 245 247 249 252 256 260 263 266 271 276 279 282 284 286 287 288 291 295 296 295 293 291 289 288 287 286 285 287 289 290 291 288 288 285 282 280 276 274 272 271 268
243 242 244 246 248 249 252 255 260 265 268 272 275 278 282 286 288 290 291 294 297 297 294 290 290 290 290 291 290 288 290 292 294 294 292 291 287 284 280 277 277 275 273 270
243 243 243 246 247 248 250 253 258 264 267 272 274 277 280 285 288 291 293 296 298 296 293 291 290 290 292 292 293 294 293 294 296 295 294 291 290 286 282 279 278 276 275 274
243 244 243 244 246 247 249 252 257 262 268 272 275 278 283 286 290 293 295 297 300 296 293 291 290 289 291 294 295 297 297 297 298 298 297 295 292 289 287 283 281 279 277 276
242 244 243 243 244 247 248 251 256 261 266 272 276 279 283 287 291 294 297 298 300 298 294 290 290 291 293 297 299 300 299 298 298 299 298 295 293 293 291 287 284 282 281 280
241 243 243 243 244 245 248 251 256 261 266 271 276 279 282 287 291 293 297 297 298 299 295 290 291 294 295 298 301 300 300 300 301 301 301 297 297 295 294 292 290 289 286 282
240 242 243 243 244 246 249 251 255 260 265 270 274 278 280 285 289 292 296 296 296 296 293 291 292 296 297 299 302 301 300 300 301 302 303 301 299 297 296 295 294 294 292 287
239 241 242 244 247 249 250 252 256 260 264 268 272 276 278 282 286 290 294 295 292 290 291 292 294 296 298 301 302 301 300 300 301 302 303 303 301 299 298 296 296 298 296 290
239 241 242 244 246 247 249 251 255 259 264 269 271 273 276 279 283 287 290 291 290 290 292 293 294 297 300 301 301 302 300 301 302 303 305 304 305 304 301 299 299 300 298 294
237 240 242 244 245 248 249 251 255 259 263 268 270 271 274 277 280 283 286 286 287 289 294 295 295 297 299 301 304 304 302 302 302 304 306 308 309 308 307 304 305 303 299 295
236 239 241 243 245 248 249 252 257 260 264 267 269 271 271 273 276 279 281 282 284 289 293 294 295 295 297 301 305 305 302 299 300 302 305 307 308 307 307 308 309 305 298 295
234 238 242 244 245 248 251 253 256 259 262 265 267 268 270 272 274 276 280 282 283 287 289 291 293 293 295 299 300 301 302 298 298 300 302 303 306 307 308 310 310 305 300 295
234 238 242 245 247 249 249 252 255 259 261 264 265 266 267 271 273 274 279 281 281 285 288 289 290 292 294 296 297 297 299 298 298 299 301 303 305 307 307 309 307 305 300 295
235 238 241 244 247 250 250 253 255 258 260 261 264 265 266 268 272 273 276 278 279 282 285 287 288 290 293 294 295 296 297 299 299 299 301 303 304 305 306 307 305 303 300 295
235 237 240 243 247 250 252 255 256 258 260 260 262 263 264 266 269 271 274 276 279 280 282 284 286 287 290 291 292 294 296 297 298 299 300 302 303 304 305 305 304 302 300 296
233 236 239 242 246 249 252 254 255 258 258 259 260 262 264 266 268 270 272 275 277 279 280 282 283 283 285 288 289 291 293 295 296 297 298 299 300 302 303 303 303 302 299 296
231 233 236 238 242 245 246 250 253 255 256 258 259 261 263 264 267 269 271 273 274 275 278 280 280 280 282 285 287 289 291 292 293 293 295 296 298 299 301 301 302 302 301 297
232 233 235 236 238 241 244 248 251 253 254 256 259 260 262 264 265 268 270 272 274 275 276 277 278 278 280 283 284 286 288 290 290 290 292 294 296 297 297 298 300 300 299 297
232 234 235 236 237 240 242 246 249 251 253 255 258 261 262 263 264 266 269 271 272 273 274 275 276 278 279 281 284 286 289 290 291 292 293 295 296 296 295 296 297 298 297 297
233 235 235 235 237 240 241 244 247 251 254 256 258 260 262 264 265 267 269 270 271 271 271 273 276 277 279 281 284 286 288 290 291 292 294 295 295 295 294 294 295 297 298 296
Height
5724 5727 5728 5729 5730 5731 5732 5733 5733 5734 5733 5733 5733 5733 5732 5730 5728 5727 5725 5723 5722 5720 5718 5716 5714 5712 5711 5709 5708 5706 5705 5703 5702 5701 5699 5698 5696 5694 5692 5690 5689 5688 5688 5690
5718 5720 5721 5722 5723 5724 5725 5726 5727 5727 5727 5726 5726 5725 5725 5723 5721 5719 5717 5715 5713 5711 5709 5707 5704 5702 5700 5699 5697 5696 5694 5692 5691 5689 5688 5686 5684 5682 5679 5677 5675 5674 5674 5676
5710 5714 5714 5715 5716 5718 5719 5720 5720 5720 5720 5719 5718 5718 5718 5716 5713 5711 5709 5707 5705 5702 5699 5697 5694 5692 5690 5689 5687 5685 5683 5681 5679 5677 5675 5673 5671 5668 5666 5664 5662 5661 5661 5662
5703 5706 5707 5708 5710 5710 5712 5713 5713 5713 5712 5712 5711 5710 5711 5708 5706 5704 5701 5699 5696 5693 5690 5687 5684 5682 5680 5678 5676 5674 5672 5670 5668 5665 5663 5660 5658 5656 5654 5651 5650 5649 5648 5649
5696 5698 5700 5701 5703 5703 5704 5705 5705 5705 5704 5704 5704 5702 5703 5701 5698 5696 5693 5690 5687 5684 5681 5677 5674 5672 5669 5668 5666 5664 5662 5659 5656 5653 5650 5647 5645 5643 5641 5639 5638 5637 5637 5637
5688 5690 5692 5694 5695 5696 5697 5698 5698 5697 5697 5697 5697 5694 5694 5693 5691 5688 5685 5682 5679 5675 5671 5668 5665 5662 5660 5658 5656 5654 5652 5649 5646 5643 5639 5636 5633 5631 5629 5627 5626 5625 5625 5624
5679 5682 5684 5686 5687 5689 5690 5691 5691 5690 5689 5690 5689 5687 5687 5685 5683 5680 5677 5674 5670 5666 5662 5658 5655 5653 5650 5649 5647 5645 5643 5640 5637 5633 5629 5626 5622 5620 5618 5616 5615 5614 5613 5613
5670 5674 5676 5678 5680 5681 5682 5683 5684 5683 5682 5682 5681 5679 5680 5678 5675 5672 5668 5665 5661 5657 5653 5650 5647 5645 5642 5640 5638 5637 5634 5631 5628 5624 5620 5616 5613 5610 5608 5606 5605 5604 5603 5602
5662 5665 5668 5670 5671 5673 5674 5675 5676 5675 5674 5674 5673 5673 5672 5670 5668 5664 5661 5657 5653 5649 5645 5642 5640 5638 5635 5633 5631 5629 5626 5623 5619 5616 5612 5609 5605 5602 5600 5598 5596 5595 5594 5593
5652 5655 5659 5660 5662 5664 5666 5667 5668 5667 5666 5665 5665 5665 5665 5663 5660 5657 5654 5650 5646 5642 5638 5635 5633 5631 5629 5626 5624 5621 5618 5615 5612 5608 5605 5602 5599 5596 5593 5591 5589 5587 5585 5584
5644 5646 5649 5652 5654 5657 5658 5660 5660 5659 5659 5658 5657 5660 5658 5656 5653 5650 5647 5643 5639 5635 5632 5629 5627 5625 5623 5620 5617 5615 5612 5609 5605 5602 5598 5596 5593 5590 5587 5584 5582 5580 5578 5576
5634 5637 5639 5643 5645 5647 5649 5651 5652 5653 5652 5651 5650 5653 5651 5649 5646 5643 5639 5636 5633 5629 5626 5623 5622 5619 5617 5615 5612 5609 5606 5603 5600 5596 5593 5590 5587 5584 5581 5578 5576 5573 5571 5569
5624 5627 5630 5633 5638 5639 5640 5642 5644 5644 5644 5643 5643 5647 5644 5642 5639 5636 5633 5630 5627 5624 5621 5619 5617 5614 5612 5609 5606 5603 5601 5598 5595 5591 5588 5585 5582 5579 5576 5573 5570 5568 5565 5562
5614 5617 5622 5626 5628 5630 5632 5635 5635 5635 5635 5636 5637 5638 5637 5635 5633 5630 5627 5624 5621 5619 5617 5615 5612 5610 5607 5604 5602 5599 5596 5593 5590 5587 5583 5580 5577 5574 5571 5568 5565 5562 5559 5557
5604 5608 5612 5615 5618 5620 5623 5625 5626 5627 5628 5629 5630 5630 5630 5628 5626 5624 5621 5619 5616 5615 5612 5610 5608 5605 5603 5600 5597 5594 5591 5588 5586 5583 5579 5576 5572 5569 5566 5563 5560 5557 5554 5551
5594 5598 5602 5605 5608 5610 5613 5616 5618 5619 5620 5621 5621 5623 5623 5621 5619 5617 5616 5613 5611 5610 5608 5606 5604 5601 5598 5595 5592 5589 5587 5584 5582 5579 5576 5572 5569 5565 5562 5558 5555 5552 5549 5547
5585 5589 5593 5596 5599 5600 5603 5608 5610 5611 5612 5613 5613 5616 5615 5613 5612 5610 5609 5608 5606 5605 5603 5602 5599 5596 5593 5591 5588 5585 5582 5580 5578 5575 5572 5569 5565 5562 5558 5554 5551 5548 5545 5543
5576 5579 5582 5586 5589 5590 5599 5601 5601 5602 5604 5605 5606 5607 5607 5606 5604 5603 5602 5602 5601 5599 5598 5596 5594 5592 5589 5586 5583 5581 5578 5576 5574 5571 5568 5565 5562 5558 5555 5551 5547 5544 5541 5539
5566 5570 5573 5576 5578 5582 5589 5592 5593 5593 5595 5597 5597 5598 5598 5597 5596 5596 5595 5594 5594 5593 5591 5589 5587 5586 5584 5581 5579 5577 5575 5572 5569 5566 5564 5561 5557 5554 5551 5547 5543 5540 5537 5535
5556 5560 5564 5567 5569 5573 5582 5583 5583 5584 5586 5589 5588 5589 5589 5589 5589 5590 5588 5587 5587 5586 5585 5583 5581 5580 5578 5576 5574 5572 5570 5567 5564 5562 5559 5556 5553 5549 5546 5543 5539 5536 5533 5530
5547 5550 5554 5557 5560 5565 5571 5572 5573 5576 5579 5579 5579 5579 5580 5580 5581 5582 5580 5580 5579 5579 5578 5576 5575 5574 5572 5570 5568 5566 5564 5562 5559 5556 5554 5551 5548 5545 5541 5537 5534 5531 5528 5525
5537 5541 5545 5548 5551 5559 5561 5562 5564 5566 5567 5568 5569 5570 5571 5572 5572 5573 5573 5572 5572 5571 5571 5569 5568 5567 5565 5564 5562 5560 5558 5556 5553 5551 5548 5545 5542 5539 5535 5532 5528 5525 5521 5519
5528 5532 5534 5539 5545 5548 5550 5552 5554 5555 5557 5559 5560 5561 5562 5563 5564 5564 5564 5564 5564 5563 5562 5562 5561 5560 5558 5557 5555 5554 5552 5550 5547 5545 5542 5539 5536 5532 5529 5525 5522 5519 5515 5512
5518 5521 5525 5529 5534 5537 5540 5542 5544 5546 5547 5549 5551 5552 5553 5554 5555 5556 5556 5555 5555 5555 5554 5554 5553 5552 5551 5550 5548 5546 5545 5543 5541 5538 5535 5532 5529 5526 5522 5518 5515 5512 5508 5505
5509 5511 5515 5519 5524 5527 5530 5533 5535 5536 5538 5540 5542 5543 5544 5545 5546 5547 5547 5547 5546 5546 5546 5546 5545 5545 5544 5542 5541 5539 5537 5535 5533 5530 5528 5525 5521 5518 5514 5511 5507 5504 5501 5497
5500 5503 5506 5511 5514 5517 5520 5523 5525 5527 5529 5531 5532 5534 5535 5536 5536 5537 5538 5538 5538 5538 5537 5537 5537 5536 5535 5534 5533 5531 5529 5527 5525 5522 5519 5516 5513 5510 5506 5503 5500 5496 5493 5489